Canyon City, OR

4:34 PM PDT on August 31, 2016 (GMT -0700)
Grant County Regional

Weather History for KGCD - December, 2013

Change the Weather History Date:

Tuesday, December 24, 2013

  Actual Average (KBNO) Record (KBNO)
Temperature  
Mean Temperature 34 °F 23 °F  
Max Temperature 41 °F 33 °F 48 °F (1989)
Min Temperature 26 °F 13 °F -17 °F (1990)
Degree Days  
Heating Degree Days 32 42  
Month to date heating degree days 976  
Since 1 July heating degree days 2977  
Cooling Degree Days 0 0  
Month to date cooling degree days 0  
Year to date cooling degree days 215  
Moisture  
Dew Point 22 °F    
Average Humidity 65    
Maximum Humidity 84    
Minimum Humidity 43    
Precipitation  
Precipitation 0.00 in 0.05 in 0.63 in (1979)
Month to date precipitation 1.21  
Year to date precipitation 10.58  
Sea Level Pressure  
Sea Level Pressure 30.48 in    
Wind  
Wind Speed 5 mph (East)    
Max Wind Speed 10 mph    
Max Gust Speed -    
Visibility 10 miles    
Events      
T = Trace of Precipitation, MM = Missing Value Source: NWS Daily Summary

Daily Weather History Graph

Daily Weather History Graph

Search for Another Location

Airport or City:

Trip Planner

Search our weather history database for the weather conditions in past years. The results will help you decide how hot, cold, wet, or windy it might be!

Date:

Astronomy

Dec. 24, 2013 Rise Set
Actual Time 7:30 AM PST 4:21 PM PST
Civil Twilight 6:56 AM PST 4:54 PM PST
Nautical Twilight 6:20 AM PST 5:31 PM PST
Astronomical Twilight 5:44 AM PST 6:06 PM PST
Moon 11:50 PM PST (12/24) 11:11 AM PST (12/24)
Length of Visible Light 9h 57m
Length of Day
8h 50m
Waning Gibbous, 57% of the Moon is Illuminated
Dec 24
Waning Gibbous
Dec 25
Last Quarter
Jan 1
New
Jan 7
First Quarter
Jan 15
Full

Hourly Weather History & Observations

Time (PST) Temp. Windchill Dew Point Humidity Pressure Visibility Wind Dir Wind Speed Gust Speed Precip Events Conditions
12:15 AM 37.9 °F 32.7 °F 24.8 °F 59% 30.42 in 10.0 mi NW 6.9 mph - N/A   Clear
12:35 AM 35.4 °F 30.5 °F 24.4 °F 64% 30.43 in 10.0 mi WNW 5.8 mph - N/A   Clear
12:55 AM 34.3 °F 30.2 °F 24.6 °F 68% 30.44 in 10.0 mi SE 4.6 mph - N/A   Clear
1:15 AM 37.4 °F - 23.9 °F 58% 30.44 in 10.0 mi Calm Calm - N/A   Clear
1:35 AM 35.6 °F - 23.2 °F 61% 30.45 in 10.0 mi Calm Calm - N/A   Clear
1:55 AM 34.5 °F 31.6 °F 23.2 °F 63% 30.45 in 10.0 mi West 3.5 mph - N/A   Clear
2:15 AM 32.0 °F - 23.4 °F 70% 30.46 in 10.0 mi Calm Calm - N/A   Clear
2:35 AM 33.1 °F - 23.7 °F 68% 30.46 in 10.0 mi Calm Calm - N/A   Clear
2:55 AM 32.5 °F - 25.0 °F 74% 30.47 in 10.0 mi Calm Calm - N/A   Clear
3:15 AM 33.8 °F - 24.8 °F 70% 30.47 in 10.0 mi Calm Calm - N/A   Clear
3:35 AM 32.0 °F 28.7 °F 24.4 °F 74% 30.47 in 10.0 mi ENE 3.5 mph - N/A   Clear
3:55 AM 33.1 °F 30.0 °F 24.4 °F 71% 30.47 in 10.0 mi ENE 3.5 mph - N/A   Clear
4:15 AM 32.0 °F 26.4 °F 23.9 °F 72% 30.48 in 10.0 mi ENE 5.8 mph - N/A   Clear
4:35 AM 31.8 °F 28.5 °F 22.6 °F 69% 30.48 in 10.0 mi East 3.5 mph - N/A   Clear
4:55 AM 30.9 °F 27.5 °F 22.1 °F 70% 30.48 in 10.0 mi ENE 3.5 mph - N/A   Clear
5:15 AM 30.6 °F 27.1 °F 22.1 °F 71% 30.48 in 10.0 mi East 3.5 mph - N/A   Clear
5:35 AM 30.2 °F 25.4 °F 22.6 °F 73% 30.48 in 10.0 mi East 4.6 mph - N/A   Clear
5:55 AM 30.2 °F 25.4 °F 22.1 °F 72% 30.49 in 10.0 mi East 4.6 mph - N/A   Clear
6:15 AM 29.1 °F 23.0 °F 22.6 °F 77% 30.49 in 10.0 mi East 5.8 mph - N/A   Clear
6:35 AM 28.4 °F 20.4 °F 23.0 °F 80% 30.49 in 10.0 mi East 8.1 mph - N/A   Clear
6:55 AM 27.5 °F 21.1 °F 22.6 °F 82% 30.49 in 10.0 mi East 5.8 mph - N/A   Clear
7:15 AM 27.3 °F 20.9 °F 22.8 °F 83% 30.51 in 10.0 mi East 5.8 mph - N/A   Clear
7:35 AM 26.4 °F 20.9 °F 22.3 °F 84% 30.52 in 10.0 mi East 4.6 mph - N/A   Clear
7:55 AM 27.3 °F 20.9 °F 23.2 °F 84% 30.52 in 10.0 mi ESE 5.8 mph - N/A   Clear
8:15 AM 28.4 °F 19.7 °F 23.2 °F 81% 30.51 in 10.0 mi ESE 9.2 mph - N/A   Clear
8:35 AM 28.9 °F 21.1 °F 23.0 °F 78% 30.52 in 10.0 mi ESE 8.1 mph - N/A   Clear
8:55 AM 29.1 °F 22.1 °F 23.2 °F 78% 30.51 in 10.0 mi ESE 6.9 mph - N/A   Clear
9:15 AM 30.9 °F 22.8 °F 23.7 °F 75% 30.52 in 10.0 mi East 9.2 mph - N/A   Clear
9:35 AM 30.9 °F 22.2 °F 23.5 °F 74% 30.52 in 10.0 mi East 10.4 mph - N/A   Clear
9:55 AM 32.0 °F 25.6 °F 23.9 °F 72% 30.52 in 10.0 mi East 6.9 mph - N/A   Clear
10:15 AM 32.2 °F 24.4 °F 22.8 °F 68% 30.53 in 10.0 mi East 9.2 mph - N/A   Clear
10:35 AM 34.0 °F 27.2 °F 22.6 °F 63% 30.52 in 10.0 mi East 8.1 mph - N/A   Clear
10:55 AM 35.6 °F 30.7 °F 22.8 °F 60% 30.51 in 10.0 mi East 5.8 mph - N/A   Clear
11:15 AM 36.7 °F 31.2 °F 24.1 °F 60% 30.51 in 10.0 mi East 6.9 mph - N/A   Clear
11:35 AM 37.0 °F 31.0 °F 23.2 °F 57% 30.50 in 10.0 mi East 8.1 mph - N/A   Clear
11:55 AM 37.9 °F 32.7 °F 23.4 °F 56% 30.49 in 10.0 mi East 6.9 mph - N/A   Clear
12:15 PM 38.7 °F 32.4 °F 23.9 °F 55% 30.49 in 10.0 mi East 9.2 mph - N/A   Clear
12:35 PM 39.2 °F 34.2 °F 23.9 °F 54% 30.48 in 10.0 mi ENE 6.9 mph - N/A   Clear
12:55 PM 39.9 °F 34.5 °F 22.6 °F 50% 30.48 in 10.0 mi ENE 8.1 mph - N/A   Clear
1:15 PM 40.1 °F 34.7 °F 22.6 °F 50% 30.47 in 10.0 mi ENE 8.1 mph - N/A   Clear
1:35 PM 40.3 °F 35.5 °F 20.8 °F 46% 30.48 in 10.0 mi East 6.9 mph - N/A   Clear
1:55 PM 40.5 °F 35.1 °F 20.7 °F 45% 30.47 in 10.0 mi East 8.1 mph - N/A   Clear
2:15 PM 41.0 °F 37.1 °F 20.7 °F 44% 30.47 in 10.0 mi East 5.8 mph - N/A   Clear
2:35 PM 41.2 °F 38.2 °F 20.1 °F 43% 30.47 in 10.0 mi East 4.6 mph - N/A   Clear
2:55 PM 40.8 °F 36.9 °F 21.6 °F 46% 30.47 in 10.0 mi East 5.8 mph - N/A   Clear
3:15 PM 41.0 °F 37.1 °F 21.0 °F 45% 30.48 in 10.0 mi East 5.8 mph - N/A   Clear
3:35 PM 40.5 °F 38.4 °F 21.9 °F 48% 30.48 in 10.0 mi East 3.5 mph - N/A   Clear
3:55 PM 39.6 °F 37.4 °F 22.3 °F 50% 30.48 in 10.0 mi ENE 3.5 mph - N/A   Clear
4:15 PM 37.2 °F 33.6 °F 21.6 °F 53% 30.49 in 10.0 mi ENE 4.6 mph - N/A   Clear
4:35 PM 36.0 °F 33.3 °F 22.3 °F 58% 30.49 in 10.0 mi East 3.5 mph - N/A   Clear
4:55 PM 36.5 °F 33.9 °F 21.4 °F 54% 30.48 in 10.0 mi ESE 3.5 mph - N/A   Clear
5:15 PM 35.2 °F 30.3 °F 21.7 °F 58% 30.48 in 10.0 mi SE 5.8 mph - N/A   Clear
5:35 PM 34.0 °F 28.0 °F 22.5 °F 63% 30.48 in 10.0 mi ESE 6.9 mph - N/A   Clear
5:55 PM 33.1 °F 25.5 °F 22.6 °F 66% 30.48 in 10.0 mi ESE 9.2 mph - N/A   Clear
6:15 PM 33.1 °F 26.1 °F 22.3 °F 65% 30.48 in 10.0 mi ESE 8.1 mph - N/A   Clear
6:35 PM 32.4 °F 24.6 °F 22.3 °F 66% 30.48 in 10.0 mi East 9.2 mph - N/A   Clear
6:55 PM 31.3 °F 24.7 °F 22.5 °F 70% 30.48 in 10.0 mi East 6.9 mph - N/A   Clear
7:15 PM 30.9 °F 22.8 °F 21.7 °F 69% 30.48 in 10.0 mi East 9.2 mph - N/A   Clear
7:35 PM 30.6 °F 23.1 °F 21.9 °F 70% 30.48 in 10.0 mi East 8.1 mph - N/A   Clear
7:55 PM 29.8 °F 22.2 °F 21.9 °F 72% 30.48 in 10.0 mi East 8.1 mph - N/A   Clear
8:15 PM 30.6 °F 22.4 °F 22.3 °F 71% 30.49 in 10.0 mi East 9.2 mph - N/A   Clear
8:35 PM 30.6 °F 23.1 °F 21.7 °F 70% 30.49 in 10.0 mi East 8.1 mph - N/A   Clear
8:55 PM 29.7 °F 22.8 °F 21.2 °F 71% 30.49 in 10.0 mi East 6.9 mph - N/A   Clear
9:15 PM 29.7 °F 21.3 °F 20.3 °F 68% 30.49 in 10.0 mi East 9.2 mph - N/A   Clear
9:35 PM 29.7 °F 21.3 °F 20.1 °F 68% 30.49 in 10.0 mi East 9.2 mph - N/A   Clear
9:55 PM 29.7 °F 21.3 °F 19.4 °F 66% 30.49 in 10.0 mi ESE 9.2 mph - N/A   Clear
10:15 PM 30.2 °F 21.3 °F 19.4 °F 64% 30.49 in 10.0 mi East 10.4 mph - N/A   Clear
10:35 PM 29.1 °F 20.6 °F 19.4 °F 67% 30.49 in 10.0 mi East 9.2 mph - N/A   Clear
10:55 PM 27.9 °F 19.1 °F 19.9 °F 72% 30.50 in 10.0 mi East 9.2 mph - N/A   Clear
11:15 PM 28.4 °F 19.7 °F 19.4 °F 69% 30.50 in 10.0 mi East 9.2 mph - N/A   Clear
11:35 PM 27.7 °F 18.2 °F 19.2 °F 71% 30.50 in 10.0 mi East 10.4 mph - N/A   Clear
11:55 PM 27.5 °F 18.6 °F 19.2 °F 71% 30.49 in 10.0 mi East 9.2 mph - N/A   Clear